Location: El Centro
(32.7920°N, 115.5620°W)
Time: 21:04:30
(UTC-07:00)

Amateur Radio Satellites - All Passes

Search period start: 20 September 2014 20:34
Search period end: 21 September 2014 20:34
Location: El Centro, 32.7920°N, 115.5620°W

Satellite Date Start Highest point End Downlink Frequencies (MHz)
Time Altitude Azimuth
PCSat 20 Sep 20:48:06 20:52:57 32° 58° (ENE) 20:57:45 145.825 MHz
SO-50 20 Sep 21:02:49 21:06:35 28° 111° (ESE) 21:10:26 436.795 FM
HO-68 20 Sep 21:24:55 21:31:55 61° 257° (WSW) 21:38:59 435.675 MHz FM
KITSAT 1 20 Sep 21:41:45 21:44:29 12° 322° (NW) 21:47:15 435.175 FM
FUNcube-1 20 Sep 21:44:11 21:47:58 29° 71° (ENE) 21:51:52 145.950 - 145.970 MHz USB
Oscar 11 20 Sep 21:50:12 21:54:33 83° 258° (WSW) 21:58:57 145.825 FM, Beacon 2401.500 USB
Sapphire 20 Sep 22:04:10 22:09:28 55° 249° (WSW) 22:14:44 437.095 MHz 1200 baud AX-25 AFSK
UKube-1 20 Sep 22:08:50 22:12:43 33° 262° (W) 22:16:38 145.840 MHz, 145.915 MHz
PCSat 20 Sep 22:31:39 22:36:12 28° 253° (WSW) 22:40:43 145.825 MHz
UOSAT-12 20 Sep 22:33:52 22:37:07 19° 109° (ESE) 22:40:24 437.025 FM, 437.400 FM
Oscar 10/S400 20 Sep 22:40:36 23:22:32 68° 201° (SSW) 09:15:24 145.825 - 145.975 CW/USB, Beacon 145.810 USB
SO-50 20 Sep 22:43:25 22:47:04 24° 307° (NW) 22:50:48 436.795 FM
FUNcube-1 20 Sep 23:21:12 23:24:21 19° 266° (W) 23:27:33 145.950 - 145.970 MHz USB
UOSAT-12 21 Sep 00:12:43 00:16:57 36° 304° (WNW) 00:21:17 437.025 FM, 437.400 FM
PANSAT 21 Sep 00:23:35 00:26:43 24° 164° (SSE) 00:29:51 not established
ISS 21 Sep 00:55:00 00:57:57 30° 130° (SE) 01:00:54 145.800 FM
Oscar 19 21 Sep 01:19:58 01:23:49 21° 95° (E) 01:27:38 437.125 CW, 437.150 USB
Saudisat 1A 21 Sep 01:24:54 01:28:45 28° 55° (NE) 01:32:33 436.775 MHz
AO-27 21 Sep 01:42:46 01:45:25 14° 93° (E) 01:48:03 436.795 MHz FM
RS-15 21 Sep 01:48:23 01:53:09 14° 99° (E) 01:57:50 29.354 - 29.394 USB, Beacon 29.352 USB
Oscar 16 21 Sep 01:58:03 02:03:08 56° 101° (E) 02:08:10 437.025 USB, Beacon 2401.1428
AO-Echo 21 Sep 01:59:21 02:03:23 25° 97° (E) 02:07:30 ?
PANSAT 21 Sep 02:02:55 02:06:33 42° 176° (S) 02:10:11 not established
ISS 21 Sep 02:32:04 02:34:40 21° 325° (NW) 02:37:16 145.800 FM
Gurwin Techsat 1B 21 Sep 02:42:30 02:46:57 27° 97° (E) 02:51:23 435.225 FM
ITAMSAT 1 21 Sep 02:44:34 02:49:45 64° 102° (ESE) 02:54:55 435.822 SSB
Uribyol 2 21 Sep 02:48:20 02:53:35 75° 102° (ESE) 02:58:47 436.500 FM
JAS-1B 21 Sep 02:56:37 03:02:18 89° 104° (ESE) 03:08:12 435.800 - 435.900 CW/SSB
Oscar 19 21 Sep 02:58:30 03:03:11 36° 289° (WNW) 03:07:50 437.125 CW, 437.150 USB
Saudisat 1A 21 Sep 03:04:42 03:08:08 23° 249° (WSW) 03:11:34 436.775 MHz
TMSAT-1 21 Sep 03:18:01 03:23:05 45° 99° (E) 03:28:08 436.925 FM
AO-27 21 Sep 03:20:06 03:25:11 55° 287° (WNW) 03:30:15 436.795 MHz FM
OPAL 21 Sep 03:21:19 03:23:43 13° 62° (ENE) 03:26:07 ?
KITSAT 1 21 Sep 03:37:47 03:44:57 34° 53° (NE) 03:52:04 435.175 FM
AO-Echo 21 Sep 03:37:54 03:42:04 29° 289° (WNW) 03:46:20 ?
Oscar 16 21 Sep 03:39:13 03:41:57 15° 295° (WNW) 03:44:41 437.025 USB, Beacon 2401.1428
PANSAT 21 Sep 03:42:54 03:46:27 36° 189° (S) 03:49:59 not established
RS-15 21 Sep 03:52:37 04:03:45 81° 115° (ESE) 04:14:40 29.354 - 29.394 USB, Beacon 29.352 USB
AO-7 21 Sep 04:21:48 04:29:27 40° 100° (E) 04:37:04 29.400 - 29.500 MHz
Gurwin Techsat 1B 21 Sep 04:22:15 04:26:49 30° 290° (WNW) 04:31:23 435.225 FM
ITAMSAT 1 21 Sep 04:26:18 04:28:38 13° 296° (WNW) 04:30:59 435.822 SSB
Uribyol 2 21 Sep 04:30:54 04:32:21 11° 297° (WNW) 04:33:47 436.500 FM
Uosat F 21 Sep 04:48:52 04:53:49 56° 101° (E) 04:58:44 435.120 FM
OPAL 21 Sep 04:56:51 05:01:58 65° 257° (WSW) 05:07:10 ?
TMSAT-1 21 Sep 04:59:01 05:02:37 19° 293° (WNW) 05:06:12 436.925 FM
PANSAT 21 Sep 05:23:41 05:26:11 17° 201° (SSW) 05:28:41 not established
JAS-2 21 Sep 05:23:50 05:28:43 22° 96° (E) 05:33:58 435.800 - 435.900 CW/SSB, 435.910 FM
KITSAT 1 21 Sep 05:32:50 05:40:28 48° 250° (WSW) 05:48:04 435.175 FM
SO-50 21 Sep 05:40:43 05:41:38 11° 46° (NE) 05:42:34 436.795 FM
STRAND 1 21 Sep 05:42:34 05:45:53 18° 67° (ENE) 05:49:13 ?
RS-15 21 Sep 06:08:28 06:17:16 27° 317° (NW) 06:26:05 29.354 - 29.394 USB, Beacon 29.352 USB
AO-7 21 Sep 06:14:37 06:22:04 39° 296° (WNW) 06:29:31 29.400 - 29.500 MHz
Hamsat 21 Sep 06:27:10 06:31:24 71° 101° (E) 06:35:33 145.90 MHz
Uosat F 21 Sep 06:29:35 06:32:04 14° 295° (WNW) 06:34:34 435.120 FM
MaSat-1 21 Sep 06:37:27 06:40:23 16° 102° (ESE) 06:43:20 437.345 MHz
SO-67 21 Sep 06:48:31 06:49:29 11° 93° (E) 06:50:27 435.3500 MHz FM
JAS-2 21 Sep 07:07:45 07:13:47 52° 287° (WNW) 07:20:35 435.800 - 435.900 CW/SSB, 435.910 FM
SO-50 21 Sep 07:17:59 07:22:50 89° 62° (ENE) 07:27:43 436.795 FM
STRAND 1 21 Sep 07:19:52 07:24:41 44° 260° (W) 07:29:32 ?
MaSat-1 21 Sep 08:11:51 08:16:41 49° 295° (WNW) 08:21:30 437.345 MHz
SO-67 21 Sep 08:19:33 08:22:33 28° 286° (WNW) 08:25:32 435.3500 MHz FM
UOSAT-12 21 Sep 08:46:09 08:50:47 56° 59° (ENE) 08:55:20 437.025 FM, 437.400 FM
HO-68 21 Sep 08:57:49 09:04:12 34° 98° (E) 09:10:32 435.675 MHz FM
ISS 21 Sep 09:03:23 09:06:39 55° 42° (NE) 09:09:54 145.800 FM
Oscar 11 21 Sep 09:42:56 09:46:29 24° 96° (E) 09:50:00 145.825 FM, Beacon 2401.500 USB
UKube-1 21 Sep 10:00:57 10:05:15 57° 101° (E) 10:09:31 145.840 MHz, 145.915 MHz
UOSAT-12 21 Sep 10:28:35 10:30:23 12° 253° (WSW) 10:32:09 437.025 FM, 437.400 FM
HO-68 21 Sep 10:45:19 10:51:49 39° 293° (WNW) 10:58:19 435.675 MHz FM
RS-15 21 Sep 10:48:48 10:55:16 17° 32° (NNE) 11:01:49 29.354 - 29.394 USB, Beacon 29.352 USB
Sapphire 21 Sep 10:58:35 11:03:28 36° 109° (ESE) 11:08:23 437.095 MHz 1200 baud AX-25 AFSK
FUNcube-1 21 Sep 11:13:20 11:17:55 70° 284° (WNW) 11:22:25 145.950 - 145.970 MHz USB
Oscar 11 21 Sep 11:19:09 11:22:30 22° 290° (WNW) 11:25:50 145.825 FM, Beacon 2401.500 USB
PCSat 21 Sep 11:24:48 11:30:10 73° 113° (ESE) 11:35:35 145.825 MHz
UKube-1 21 Sep 11:40:11 11:40:54 10° 295° (WNW) 11:41:36 145.840 MHz, 145.915 MHz
Oscar 19 21 Sep 12:32:52 12:36:37 21° 67° (ENE) 12:40:23 437.125 CW, 437.150 USB
Sapphire 21 Sep 12:42:29 12:46:54 25° 304° (NW) 12:51:22 437.095 MHz 1200 baud AX-25 AFSK
AO-27 21 Sep 12:57:11 12:59:54 15° 65° (ENE) 13:02:37 436.795 MHz FM
RS-15 21 Sep 12:59:26 13:10:29 61° 58° (ENE) 13:21:58 29.354 - 29.394 USB, Beacon 29.352 USB
AO-Echo 21 Sep 13:08:59 13:12:22 20° 69° (ENE) 13:15:44 ?
Oscar 16 21 Sep 13:10:33 13:15:34 52° 73° (ENE) 13:20:36 437.025 USB, Beacon 2401.1428
PCSat 21 Sep 13:11:19 13:14:07 14° 310° (NW) 13:16:56 145.825 MHz
JAS-1B 21 Sep 13:34:46 13:43:14 56° 73° (ENE) 13:50:22 435.800 - 435.900 CW/SSB
ITAMSAT 1 21 Sep 13:58:12 14:03:16 61° 74° (ENE) 14:08:22 435.822 SSB
Gurwin Techsat 1B 21 Sep 13:59:26 14:03:52 28° 69° (ENE) 14:08:20 435.225 FM
Uribyol 2 21 Sep 14:01:48 14:06:55 72° 75° (ENE) 14:12:05 436.500 FM
Oscar 19 21 Sep 14:10:49 14:15:38 39° 261° (W) 14:20:30 437.125 CW, 437.150 USB
AO-27 21 Sep 14:33:49 14:38:52 56° 259° (W) 14:43:58 436.795 MHz FM
TMSAT-1 21 Sep 14:34:26 14:39:26 45° 72° (ENE) 14:44:27 436.925 FM
AO-Echo 21 Sep 14:46:39 14:50:54 33° 262° (W) 14:55:08 ?
Oscar 16 21 Sep 14:52:17 14:55:08 15° 267° (W) 14:58:00 437.025 USB, Beacon 2401.1428
RS-15 21 Sep 15:12:43 15:22:10 33° 255° (WSW) 15:31:59 29.354 - 29.394 USB, Beacon 29.352 USB
AO-7 21 Sep 15:16:09 15:23:34 38° 64° (ENE) 15:30:58 29.400 - 29.500 MHz
JAS-1B 21 Sep 15:26:46 15:33:46 26° 262° (W) 15:39:59 435.800 - 435.900 CW/SSB
Saudisat 1A 21 Sep 15:27:50 15:31:04 20° 110° (ESE) 15:34:19 436.775 MHz
Gurwin Techsat 1B 21 Sep 15:39:10 15:43:42 29° 263° (W) 15:48:16 435.225 FM
ITAMSAT 1 21 Sep 15:41:08 15:43:05 12° 267° (W) 15:45:03 435.822 SSB
Uosat F 21 Sep 15:57:49 16:02:36 48° 73° (ENE) 16:07:24 435.120 FM
TMSAT-1 21 Sep 16:16:03 16:19:30 18° 266° (W) 16:22:58 436.925 FM
Saudisat 1A 21 Sep 17:06:31 17:10:25 31° 304° (NW) 17:14:21 436.775 MHz
AO-7 21 Sep 17:08:27 17:16:09 42° 259° (W) 17:23:53 29.400 - 29.500 MHz
OPAL 21 Sep 17:11:26 17:16:25 49° 102° (ESE) 17:21:18 ?
Hamsat 21 Sep 17:16:16 17:20:02 29° 72° (ENE) 17:23:47 145.90 MHz
JAS-2 21 Sep 17:16:44 17:21:35 38° 72° (ENE) 17:26:19 435.800 - 435.900 CW/SSB, 435.910 FM
Uosat F 21 Sep 17:38:51 17:41:35 15° 266° (W) 17:44:20 435.120 FM
KITSAT 1 21 Sep 18:00:50 18:08:14 41° 108° (ESE) 18:15:37 435.175 FM
MaSat-1 21 Sep 18:09:43 18:13:02 42° 253° (WSW) 18:15:53 437.345 MHz
SO-67 21 Sep 18:47:42 18:50:55 38° 75° (ENE) 18:54:09 435.3500 MHz FM
OPAL 21 Sep 18:51:41 18:54:50 17° 296° (WNW) 18:57:57 ?
Hamsat 21 Sep 18:52:51 18:55:57 19° 265° (W) 18:59:03 145.90 MHz
JAS-2 21 Sep 19:03:11 19:06:48 19° 265° (W) 19:10:22 435.800 - 435.900 CW/SSB, 435.910 FM
HO-68 21 Sep 19:24:08 19:28:12 16° 59° (ENE) 19:32:15 435.675 MHz FM
STRAND 1 21 Sep 19:34:36 19:39:46 90° 92° (E) 19:44:55 ?
Sapphire 21 Sep 19:52:35 19:55:03 13° 50° (NE) 19:57:31 437.095 MHz 1200 baud AX-25 AFSK
KITSAT 1 21 Sep 19:56:07 20:03:32 39° 305° (NW) 20:11:00 435.175 FM
PCSat 21 Sep 20:17:56 20:22:15 24° 55° (NE) 20:26:32 145.825 MHz
